This is the latest recevied weather packets stored in our database for station/object OE6JUE. If no packets are shown the sender has not sent any weather packets the latest 10 day(s).
| Time | Temp. | Humidity | Pressure | Rain* | Wind** | Luminosity | Snow |
|---|---|---|---|---|---|---|---|
| 1788082117 | 28.33° C | 32% | 1019.4 hPa | 0 mm | - | - | - |
| 1788081817 | 28.89° C | 31% | 1019.5 hPa | 0 mm | - | - | - |
| 1788081517 | 28.33° C | 32% | 1019.4 hPa | 0 mm | - | - | - |
| 1788081217 | 28.33° C | 33% | 1019.3 hPa | 0 mm | - | - | - |
| 1788080917 | 27.78° C | 33% | 1019.5 hPa | 0 mm | - | - | - |
| 1788080617 | 27.78° C | 34% | 1019.5 hPa | 0 mm | - | - | - |
| 1788080317 | 28.33° C | 35% | 1019.4 hPa | 0 mm | - | - | - |
| 1788080017 | 27.78° C | 35% | 1019.4 hPa | 0 mm | - | - | - |
| 1788079717 | 27.78° C | 34% | 1019.5 hPa | 0 mm | - | - | - |
| 1788079417 | 27.78° C | 38% | 1019.7 hPa | 0 mm | - | - | - |
| 1788079117 | 27.78° C | 39% | 1019.6 hPa | 0 mm | - | - | - |
| 1788078817 | 27.78° C | 40% | 1019.7 hPa | 0 mm | - | - | - |
| 1788078517 | 27.22° C | 43% | 1019.6 hPa | 0 mm | - | - | - |
| 1788078217 | 26.67° C | 43% | 1019.6 hPa | 0 mm | - | - | - |
| 1788077917 | 26.67° C | 44% | 1019.5 hPa | 0 mm | - | - | - |
| 1788077617 | 26.67° C | 45% | 1019.6 hPa | 0 mm | - | - | - |
| 1788077317 | 26.11° C | 45% | 1019.6 hPa | 0 mm | - | - | - |
| 1788077017 | 26.11° C | 44% | 1019.5 hPa | 0 mm | - | - | - |
| 1788076717 | 25.56° C | 46% | 1019.5 hPa | 0 mm | - | - | - |
| 1788076417 | 25.56° C | 46% | 1019.5 hPa | 0 mm | - | - | - |
| 1788076117 | 25.56° C | 48% | 1019.4 hPa | 0 mm | - | - | - |
| 1788075817 | 25° C | 47% | 1019.4 hPa | 0 mm | - | - | - |
| 1788075517 | 25° C | 49% | 1019.5 hPa | 0 mm | - | - | - |
| 1788075217 | 24.44° C | 50% | 1019.3 hPa | 0 mm | - | - | - |
| 1788074917 | 24.44° C | 50% | 1019.5 hPa | 0 mm | - | - | - |
* Rain latest hour (hover to see other rain measurements)
** Current wind speed in m/s (hover to see current wind gust speed)